Year,Month,Day,Hour,Minute,Value (Times are PST for temperature in C)
2012,08,06,00,00,23.20
2012,08,06,00,01,23.20
2012,08,06,00,02,23.10
2012,08,06,00,03,23.10
2012,08,06,00,04,23.10
2012,08,06,00,05,23.00
2012,08,06,00,06,23.00
2012,08,06,00,07,22.90
2012,08,06,00,08,22.90
2012,08,06,00,09,22.90
2012,08,06,00,10,22.80
2012,08,06,00,11,22.80
2012,08,06,00,12,22.80
2012,08,06,00,13,22.70
2012,08,06,00,14,22.70
2012,08,06,00,15,22.60
2012,08,06,00,16,22.60
2012,08,06,00,17,22.60
2012,08,06,00,18,22.50
2012,08,06,00,19,22.50
2012,08,06,00,20,22.40
2012,08,06,00,21,22.40
2012,08,06,00,22,22.30
2012,08,06,00,23,22.30
2012,08,06,00,24,22.20
2012,08,06,00,25,22.20
2012,08,06,00,26,22.20
2012,08,06,00,27,22.20
2012,08,06,00,28,22.20
2012,08,06,00,29,22.20
2012,08,06,00,30,22.20
2012,08,06,00,31,22.20
2012,08,06,00,32,22.20
2012,08,06,00,33,22.20
2012,08,06,00,34,22.30
2012,08,06,00,35,22.30
2012,08,06,00,36,22.40
2012,08,06,00,37,22.40
2012,08,06,00,38,22.40
2012,08,06,00,39,22.40
2012,08,06,00,40,22.40
2012,08,06,00,41,22.40
2012,08,06,00,42,22.30
2012,08,06,00,43,22.30
2012,08,06,00,44,22.30
2012,08,06,00,45,22.20
2012,08,06,00,46,22.20
2012,08,06,00,47,22.10
2012,08,06,00,48,22.10
2012,08,06,00,49,22.00
2012,08,06,00,50,21.90
2012,08,06,00,51,21.90
2012,08,06,00,52,21.90
2012,08,06,00,53,21.80
2012,08,06,00,54,21.80
2012,08,06,00,55,21.70
2012,08,06,00,56,21.70
2012,08,06,00,57,21.70
2012,08,06,00,58,21.60
2012,08,06,00,59,21.60
2012,08,06,01,00,21.60
2012,08,06,01,01,21.60
2012,08,06,01,02,21.60
2012,08,06,01,03,21.60
2012,08,06,01,04,21.70
2012,08,06,01,05,21.70
2012,08,06,01,06,21.70
2012,08,06,01,07,21.70
2012,08,06,01,08,21.70
2012,08,06,01,09,21.70
2012,08,06,01,10,21.70
2012,08,06,01,11,21.70
2012,08,06,01,12,21.70
2012,08,06,01,13,21.70
2012,08,06,01,14,21.70
2012,08,06,01,15,21.70
2012,08,06,01,16,21.70
2012,08,06,01,17,21.70
2012,08,06,01,18,21.70
2012,08,06,01,19,21.70
2012,08,06,01,20,21.70
2012,08,06,01,21,21.70
2012,08,06,01,22,21.70
2012,08,06,01,23,21.70
2012,08,06,01,24,21.70
2012,08,06,01,25,21.70
2012,08,06,01,26,21.60
2012,08,06,01,27,21.60
2012,08,06,01,28,21.60
2012,08,06,01,29,21.60
2012,08,06,01,30,21.60
2012,08,06,01,31,21.60
2012,08,06,01,32,21.60
2012,08,06,01,33,21.60
2012,08,06,01,34,21.60
2012,08,06,01,35,21.50
2012,08,06,01,36,21.50
2012,08,06,01,37,21.50
2012,08,06,01,38,21.40
2012,08,06,01,39,21.30
2012,08,06,01,40,21.30
2012,08,06,01,41,21.20
2012,08,06,01,42,21.10
2012,08,06,01,43,21.10
2012,08,06,01,44,21.00
2012,08,06,01,45,20.90
2012,08,06,01,46,20.90
2012,08,06,01,47,20.80
2012,08,06,01,48,20.80
2012,08,06,01,49,20.80
2012,08,06,01,50,20.70
2012,08,06,01,51,20.70
2012,08,06,01,52,20.60
2012,08,06,01,53,20.60
2012,08,06,01,54,20.50
2012,08,06,01,55,20.40
2012,08,06,01,56,20.40
2012,08,06,01,57,20.40
2012,08,06,01,58,20.30
2012,08,06,01,59,20.30
2012,08,06,02,00,20.40
2012,08,06,02,01,20.40
2012,08,06,02,02,20.40
2012,08,06,02,03,20.40
2012,08,06,02,04,20.40
2012,08,06,02,05,20.40
2012,08,06,02,06,20.40
2012,08,06,02,07,20.40
2012,08,06,02,08,20.50
2012,08,06,02,09,20.50
2012,08,06,02,10,20.50
2012,08,06,02,11,20.50
2012,08,06,02,12,20.50
2012,08,06,02,13,20.50
2012,08,06,02,14,20.60
2012,08,06,02,15,20.60
2012,08,06,02,16,20.60
2012,08,06,02,17,20.60
2012,08,06,02,18,20.60
2012,08,06,02,19,20.60
2012,08,06,02,20,20.60
2012,08,06,02,21,20.60
2012,08,06,02,22,20.60
2012,08,06,02,23,20.60
2012,08,06,02,24,20.60
2012,08,06,02,25,20.60
2012,08,06,02,26,20.60
2012,08,06,02,27,20.60
2012,08,06,02,28,20.60
2012,08,06,02,29,20.60
2012,08,06,02,30,20.60
2012,08,06,02,31,20.60
2012,08,06,02,32,20.60
2012,08,06,02,33,20.50
2012,08,06,02,34,20.50
2012,08,06,02,35,20.50
2012,08,06,02,36,20.50
2012,08,06,02,37,20.50
2012,08,06,02,38,20.50
2012,08,06,02,39,20.50
2012,08,06,02,40,20.50
2012,08,06,02,41,20.50
2012,08,06,02,42,20.50
2012,08,06,02,43,20.40
2012,08,06,02,44,20.40
2012,08,06,02,45,20.40
2012,08,06,02,46,20.40
2012,08,06,02,47,20.40
2012,08,06,02,48,20.40
2012,08,06,02,49,20.30
2012,08,06,02,50,20.30
2012,08,06,02,51,20.30
2012,08,06,02,52,20.30
2012,08,06,02,53,20.30
2012,08,06,02,54,20.20
2012,08,06,02,55,20.20
2012,08,06,02,56,20.10
2012,08,06,02,57,20.10
2012,08,06,02,58,20.10
2012,08,06,02,59,20.00
2012,08,06,03,00,19.90
2012,08,06,03,01,19.90
2012,08,06,03,02,19.90
2012,08,06,03,03,19.80
2012,08,06,03,04,19.80
2012,08,06,03,05,19.70
2012,08,06,03,06,19.70
2012,08,06,03,07,19.70
2012,08,06,03,08,19.70
2012,08,06,03,09,19.70
2012,08,06,03,10,19.70
2012,08,06,03,11,19.70
2012,08,06,03,12,19.80
2012,08,06,03,13,19.80
2012,08,06,03,14,19.80
2012,08,06,03,15,19.80
2012,08,06,03,16,19.80
2012,08,06,03,17,19.80
2012,08,06,03,18,19.80
2012,08,06,03,19,19.80
2012,08,06,03,20,19.80
2012,08,06,03,21,19.80
2012,08,06,03,22,19.80
2012,08,06,03,23,19.80
2012,08,06,03,24,19.80
2012,08,06,03,25,19.80
2012,08,06,03,26,19.80
2012,08,06,03,27,19.80
2012,08,06,03,28,19.80
2012,08,06,03,29,19.80
2012,08,06,03,30,19.80
2012,08,06,03,31,19.80
2012,08,06,03,32,19.80
2012,08,06,03,33,19.70
2012,08,06,03,34,19.70
2012,08,06,03,35,19.70
2012,08,06,03,36,19.60
2012,08,06,03,37,19.50
2012,08,06,03,38,19.50
2012,08,06,03,39,19.40
2012,08,06,03,40,19.30
2012,08,06,03,41,19.20
2012,08,06,03,42,19.20
2012,08,06,03,43,19.10
2012,08,06,03,44,19.10
2012,08,06,03,45,19.10
2012,08,06,03,46,19.00
2012,08,06,03,47,19.00
2012,08,06,03,48,19.00
2012,08,06,03,49,18.90
2012,08,06,03,50,18.90
2012,08,06,03,51,18.90
2012,08,06,03,52,18.90
2012,08,06,03,53,18.90
2012,08,06,03,54,18.90
2012,08,06,03,55,18.90
2012,08,06,03,56,18.90
2012,08,06,03,57,18.80
2012,08,06,03,58,18.80
2012,08,06,03,59,18.80
2012,08,06,04,00,18.80
2012,08,06,04,01,18.80
2012,08,06,04,02,18.80
2012,08,06,04,03,18.80
2012,08,06,04,04,18.80
2012,08,06,04,05,18.80
2012,08,06,04,06,18.70
2012,08,06,04,07,18.70
2012,08,06,04,08,18.70
2012,08,06,04,09,18.70
2012,08,06,04,10,18.70
2012,08,06,04,11,18.70
2012,08,06,04,12,18.70
2012,08,06,04,13,18.60
2012,08,06,04,14,18.60
2012,08,06,04,15,18.60
2012,08,06,04,16,18.50
2012,08,06,04,17,18.50
2012,08,06,04,18,18.40
2012,08,06,04,19,18.40
2012,08,06,04,20,18.40
2012,08,06,04,21,18.40
2012,08,06,04,22,18.40
2012,08,06,04,23,18.40
2012,08,06,04,24,18.40
2012,08,06,04,25,18.40
2012,08,06,04,26,18.40
2012,08,06,04,27,18.30
2012,08,06,04,28,18.30
2012,08,06,04,29,18.30
2012,08,06,04,30,18.30
2012,08,06,04,31,18.30
2012,08,06,04,32,18.30
2012,08,06,04,33,18.30
2012,08,06,04,34,18.30
2012,08,06,04,35,18.20
2012,08,06,04,36,18.20
2012,08,06,04,37,18.20
2012,08,06,04,38,18.20
2012,08,06,04,39,18.10
2012,08,06,04,40,18.10
2012,08,06,04,41,18.10
2012,08,06,04,42,18.10
2012,08,06,04,43,18.00
2012,08,06,04,44,18.00
2012,08,06,04,45,18.00
2012,08,06,04,46,18.00
2012,08,06,04,47,17.90
2012,08,06,04,48,17.90
2012,08,06,04,49,17.90
2012,08,06,04,50,17.90
2012,08,06,04,51,17.90
2012,08,06,04,52,17.90
2012,08,06,04,53,17.90
2012,08,06,04,54,17.90
2012,08,06,04,55,17.90
2012,08,06,04,56,17.90
2012,08,06,04,57,17.90
2012,08,06,04,58,17.90
2012,08,06,04,59,17.90
2012,08,06,05,00,17.90
2012,08,06,05,01,17.90
2012,08,06,05,02,17.90
2012,08,06,05,03,17.90
2012,08,06,05,04,17.90
2012,08,06,05,05,17.90
2012,08,06,05,06,17.90
2012,08,06,05,07,17.90
2012,08,06,05,08,17.80
2012,08,06,05,09,17.80
2012,08,06,05,10,17.80
2012,08,06,05,11,17.80
2012,08,06,05,12,17.80
2012,08,06,05,13,17.80
2012,08,06,05,14,17.80
2012,08,06,05,15,17.80
2012,08,06,05,16,17.80
2012,08,06,05,17,17.80
2012,08,06,05,18,17.70
2012,08,06,05,19,17.70
2012,08,06,05,20,17.70
2012,08,06,05,21,17.70
2012,08,06,05,22,17.70
2012,08,06,05,23,17.70
2012,08,06,05,24,17.70
2012,08,06,05,25,17.70
2012,08,06,05,26,17.70
2012,08,06,05,27,17.70
2012,08,06,05,28,17.70
2012,08,06,05,29,17.70
2012,08,06,05,30,17.70
2012,08,06,05,31,17.60
2012,08,06,05,32,17.60
2012,08,06,05,33,17.60
2012,08,06,05,34,17.60
2012,08,06,05,35,17.60
2012,08,06,05,36,17.60
2012,08,06,05,37,17.60
2012,08,06,05,38,17.60
2012,08,06,05,39,17.60
2012,08,06,05,40,17.60
2012,08,06,05,41,17.60
2012,08,06,05,42,17.50
2012,08,06,05,43,17.50
2012,08,06,05,44,17.50
2012,08,06,05,45,17.50
2012,08,06,05,46,17.40
2012,08,06,05,47,17.40
2012,08,06,05,48,17.40
2012,08,06,05,49,17.40
2012,08,06,05,50,17.40
2012,08,06,05,51,17.40
2012,08,06,05,52,17.40
2012,08,06,05,53,17.40
2012,08,06,05,54,17.40
2012,08,06,05,55,17.40
2012,08,06,05,56,17.40
2012,08,06,05,57,17.40
2012,08,06,05,58,17.40
2012,08,06,05,59,17.40
2012,08,06,06,00,17.40
2012,08,06,06,01,17.40
2012,08,06,06,02,17.40
2012,08,06,06,03,17.40
2012,08,06,06,04,17.40
2012,08,06,06,05,17.40
2012,08,06,06,06,17.40
2012,08,06,06,07,17.40
2012,08,06,06,08,17.40
2012,08,06,06,09,17.40
2012,08,06,06,10,17.40
2012,08,06,06,11,17.40
2012,08,06,06,12,17.40
2012,08,06,06,13,17.40
2012,08,06,06,14,17.30
2012,08,06,06,15,17.30
2012,08,06,06,16,17.30
2012,08,06,06,17,17.30
2012,08,06,06,18,17.30
2012,08,06,06,19,17.30
2012,08,06,06,20,17.30
2012,08,06,06,21,17.30
2012,08,06,06,22,17.30
2012,08,06,06,23,17.30
2012,08,06,06,24,17.30
2012,08,06,06,25,17.20
2012,08,06,06,26,17.30
2012,08,06,06,27,17.30
2012,08,06,06,28,17.30
2012,08,06,06,29,17.40
2012,08,06,06,30,17.40
2012,08,06,06,31,17.40
2012,08,06,06,32,17.50
2012,08,06,06,33,17.50
2012,08,06,06,34,17.60
2012,08,06,06,35,17.60
2012,08,06,06,36,17.70
2012,08,06,06,37,17.70
2012,08,06,06,38,17.70
2012,08,06,06,39,17.80
2012,08,06,06,40,17.80
2012,08,06,06,41,17.80
2012,08,06,06,42,17.80
2012,08,06,06,43,17.80
2012,08,06,06,44,17.90
2012,08,06,06,45,17.90
2012,08,06,06,46,17.90
2012,08,06,06,47,17.90
2012,08,06,06,48,17.90
2012,08,06,06,49,17.90
2012,08,06,06,50,17.90
2012,08,06,06,51,17.90
2012,08,06,06,52,18.00
2012,08,06,06,53,18.00
2012,08,06,06,54,18.00
2012,08,06,06,55,18.00
2012,08,06,06,56,18.10
2012,08,06,06,57,18.10
2012,08,06,06,58,18.10
2012,08,06,06,59,18.20
2012,08,06,07,00,18.20
2012,08,06,07,01,18.20
2012,08,06,07,02,18.20
2012,08,06,07,03,18.30
2012,08,06,07,04,18.30
2012,08,06,07,05,18.30
2012,08,06,07,06,18.30
2012,08,06,07,07,18.30
2012,08,06,07,08,18.30
2012,08,06,07,09,18.40
2012,08,06,07,10,18.40
2012,08,06,07,11,18.40
2012,08,06,07,12,18.50
2012,08,06,07,13,18.50
2012,08,06,07,14,18.50
2012,08,06,07,15,18.60
2012,08,06,07,16,18.60
2012,08,06,07,17,18.60
2012,08,06,07,18,18.70
2012,08,06,07,19,18.70
2012,08,06,07,20,18.70
2012,08,06,07,21,18.80
2012,08,06,07,22,18.80
2012,08,06,07,23,18.90
2012,08,06,07,24,18.90
2012,08,06,07,25,18.90
2012,08,06,07,26,19.00
2012,08,06,07,27,19.00
2012,08,06,07,28,19.10
2012,08,06,07,29,19.10
2012,08,06,07,30,19.10
2012,08,06,07,31,19.10
2012,08,06,07,32,19.10
2012,08,06,07,33,19.10
2012,08,06,07,34,19.10
2012,08,06,07,35,19.10
2012,08,06,07,36,19.10
2012,08,06,07,37,19.10
2012,08,06,07,38,19.20
2012,08,06,07,39,19.20
2012,08,06,07,40,19.20
2012,08,06,07,41,19.20
2012,08,06,07,42,19.20
2012,08,06,07,43,19.20
2012,08,06,07,44,19.30
2012,08,06,07,45,19.30
2012,08,06,07,46,19.40
2012,08,06,07,47,19.40
2012,08,06,07,48,19.40
2012,08,06,07,49,19.50
2012,08,06,07,50,19.60
2012,08,06,07,51,19.70
2012,08,06,07,52,19.70
2012,08,06,07,53,19.80
2012,08,06,07,54,19.90
2012,08,06,07,55,20.00
2012,08,06,07,56,20.00
2012,08,06,07,57,20.10
2012,08,06,07,58,20.10
2012,08,06,07,59,20.20
2012,08,06,08,00,20.20
2012,08,06,08,01,20.30
2012,08,06,08,02,20.30
2012,08,06,08,03,20.40
2012,08,06,08,04,20.40
2012,08,06,08,05,20.40
2012,08,06,08,06,20.40
2012,08,06,08,07,20.50
2012,08,06,08,08,20.50
2012,08,06,08,09,20.60
2012,08,06,08,10,20.60
2012,08,06,08,11,20.70
2012,08,06,08,12,20.70
2012,08,06,08,13,20.80
2012,08,06,08,14,20.80
2012,08,06,08,15,20.90
2012,08,06,08,16,20.90
2012,08,06,08,17,20.90
2012,08,06,08,18,20.90
2012,08,06,08,19,20.90
2012,08,06,08,20,21.00
2012,08,06,08,21,21.00
2012,08,06,08,22,21.10
2012,08,06,08,23,21.20
2012,08,06,08,24,21.30
2012,08,06,08,25,21.40
2012,08,06,08,26,21.50
2012,08,06,08,27,21.60
2012,08,06,08,28,21.70
2012,08,06,08,29,21.70
2012,08,06,08,30,21.80
2012,08,06,08,31,21.80
2012,08,06,08,32,21.80
2012,08,06,08,33,21.90
2012,08,06,08,34,21.90
2012,08,06,08,35,21.90
2012,08,06,08,36,21.90
2012,08,06,08,37,21.90
2012,08,06,08,38,21.90
2012,08,06,08,39,21.90
2012,08,06,08,40,21.90
2012,08,06,08,41,21.90
2012,08,06,08,42,22.00
2012,08,06,08,43,22.10
2012,08,06,08,44,22.20
2012,08,06,08,45,22.20
2012,08,06,08,46,22.30
2012,08,06,08,47,22.30
2012,08,06,08,48,22.40
2012,08,06,08,49,22.40
2012,08,06,08,50,22.50
2012,08,06,08,51,22.60
2012,08,06,08,52,22.60
2012,08,06,08,53,22.70
2012,08,06,08,54,22.70
2012,08,06,08,55,22.80
2012,08,06,08,56,22.80
2012,08,06,08,57,22.80
2012,08,06,08,58,22.80
2012,08,06,08,59,22.90
2012,08,06,09,00,23.00
2012,08,06,09,01,23.00
2012,08,06,09,02,23.10
2012,08,06,09,03,23.10
2012,08,06,09,04,23.10
2012,08,06,09,05,23.10
2012,08,06,09,06,23.00
2012,08,06,09,07,22.90
2012,08,06,09,08,22.80
2012,08,06,09,09,22.60
2012,08,06,09,10,22.50
2012,08,06,09,11,22.40
2012,08,06,09,12,22.30
2012,08,06,09,13,22.30
2012,08,06,09,14,22.30
2012,08,06,09,15,22.30
2012,08,06,09,16,22.30
2012,08,06,09,17,22.30
2012,08,06,09,18,22.30
2012,08,06,09,19,22.30
2012,08,06,09,20,22.40
2012,08,06,09,21,22.50
2012,08,06,09,22,22.50
2012,08,06,09,23,22.60
2012,08,06,09,24,22.60
2012,08,06,09,25,22.50
2012,08,06,09,26,22.50
2012,08,06,09,27,22.40
2012,08,06,09,28,22.30
2012,08,06,09,29,22.30
2012,08,06,09,30,22.30
2012,08,06,09,31,22.30
2012,08,06,09,32,22.30
2012,08,06,09,33,22.30
2012,08,06,09,34,22.30
2012,08,06,09,35,22.30
2012,08,06,09,36,22.30
2012,08,06,09,37,22.30
2012,08,06,09,38,22.40
2012,08,06,09,39,22.50
2012,08,06,09,40,22.50
2012,08,06,09,41,22.60
2012,08,06,09,42,22.60
2012,08,06,09,43,22.60
2012,08,06,09,44,22.60
2012,08,06,09,45,22.60
2012,08,06,09,46,22.60
2012,08,06,09,47,22.60
2012,08,06,09,48,22.70
2012,08,06,09,49,22.70
2012,08,06,09,50,22.70
2012,08,06,09,51,22.70
2012,08,06,09,52,22.70
2012,08,06,09,53,22.70
2012,08,06,09,54,22.70
2012,08,06,09,55,22.70
2012,08,06,09,56,22.80
2012,08,06,09,57,22.90
2012,08,06,09,58,23.10
2012,08,06,09,59,23.20
2012,08,06,10,00,23.30
2012,08,06,10,01,23.40
2012,08,06,10,02,23.50
2012,08,06,10,03,23.60
2012,08,06,10,04,23.70
2012,08,06,10,05,23.80
2012,08,06,10,06,23.80
2012,08,06,10,07,23.80
2012,08,06,10,08,23.70
2012,08,06,10,09,23.70
2012,08,06,10,10,23.70
2012,08,06,10,11,23.70
2012,08,06,10,12,23.60
2012,08,06,10,13,23.60
2012,08,06,10,14,23.60
2012,08,06,10,15,23.70
2012,08,06,10,16,23.80
2012,08,06,10,17,23.80
2012,08,06,10,18,23.90
2012,08,06,10,19,24.00
2012,08,06,10,20,24.00
2012,08,06,10,21,24.10
2012,08,06,10,22,24.20
2012,08,06,10,23,24.30
2012,08,06,10,24,24.30
2012,08,06,10,25,24.40
2012,08,06,10,26,24.40
2012,08,06,10,27,24.40
2012,08,06,10,28,24.30
2012,08,06,10,29,24.20
2012,08,06,10,30,24.10
2012,08,06,10,31,24.00
2012,08,06,10,32,24.00
2012,08,06,10,33,23.90
2012,08,06,10,34,23.80
2012,08,06,10,35,23.70
2012,08,06,10,36,23.60
2012,08,06,10,37,23.60
2012,08,06,10,38,23.60
2012,08,06,10,39,23.60
2012,08,06,10,40,23.70
2012,08,06,10,41,23.70
2012,08,06,10,42,23.80
2012,08,06,10,43,23.80
2012,08,06,10,44,23.90
2012,08,06,10,45,23.90
2012,08,06,10,46,23.90
2012,08,06,10,47,23.80
2012,08,06,10,48,23.80
2012,08,06,10,49,23.70
2012,08,06,10,50,23.70
2012,08,06,10,51,23.70
2012,08,06,10,52,23.80
2012,08,06,10,53,23.80
2012,08,06,10,54,23.90
2012,08,06,10,55,24.00
2012,08,06,10,56,24.10
2012,08,06,10,57,24.10
2012,08,06,10,58,24.20
2012,08,06,10,59,24.20
2012,08,06,11,00,24.20
2012,08,06,11,01,24.10
2012,08,06,11,02,24.20
2012,08,06,11,03,24.30
2012,08,06,11,04,24.40
2012,08,06,11,05,24.50
2012,08,06,11,06,24.60
2012,08,06,11,07,24.70
2012,08,06,11,08,24.80
2012,08,06,11,09,24.90
2012,08,06,11,10,25.10
2012,08,06,11,11,25.20
2012,08,06,11,12,25.30
2012,08,06,11,13,25.40
2012,08,06,11,14,25.50
2012,08,06,11,15,25.50
2012,08,06,11,16,25.60
2012,08,06,11,17,25.60
2012,08,06,11,18,25.60
2012,08,06,11,19,25.50
2012,08,06,11,20,25.50
2012,08,06,11,21,25.40
2012,08,06,11,22,25.40
2012,08,06,11,23,25.30
2012,08,06,11,24,25.30
2012,08,06,11,25,25.20
2012,08,06,11,26,25.20
2012,08,06,11,27,25.10
2012,08,06,11,28,24.90
2012,08,06,11,29,24.80
2012,08,06,11,30,24.70
2012,08,06,11,31,24.50
2012,08,06,11,32,24.40
2012,08,06,11,33,24.30
2012,08,06,11,34,24.20
2012,08,06,11,35,24.10
2012,08,06,11,36,24.00
2012,08,06,11,37,24.00
2012,08,06,11,38,23.90
2012,08,06,11,39,23.80
2012,08,06,11,40,23.80
2012,08,06,11,41,23.80
2012,08,06,11,42,23.70
2012,08,06,11,43,23.70
2012,08,06,11,44,23.70
2012,08,06,11,45,23.60
2012,08,06,11,46,23.60
2012,08,06,11,47,23.60
2012,08,06,11,48,23.60
2012,08,06,11,49,23.50
2012,08,06,11,50,23.50
2012,08,06,11,51,23.40
2012,08,06,11,52,23.30
2012,08,06,11,53,23.20
2012,08,06,11,54,23.20
2012,08,06,11,55,23.10
2012,08,06,11,56,23.10
2012,08,06,11,57,23.00
2012,08,06,11,58,22.90
2012,08,06,11,59,22.90
2012,08,06,12,00,22.90
2012,08,06,12,01,22.80
2012,08,06,12,02,22.70
2012,08,06,12,03,22.70
2012,08,06,12,04,22.70
2012,08,06,12,05,22.70
2012,08,06,12,06,22.70
2012,08,06,12,07,22.70
2012,08,06,12,08,22.70
2012,08,06,12,09,22.70
2012,08,06,12,10,22.70
2012,08,06,12,11,22.80
2012,08,06,12,12,22.80
2012,08,06,12,13,22.70
2012,08,06,12,14,22.70
2012,08,06,12,15,22.70
2012,08,06,12,16,22.70
2012,08,06,12,17,22.70
2012,08,06,12,18,22.70
2012,08,06,12,19,22.80
2012,08,06,12,20,22.80
2012,08,06,12,21,22.90
2012,08,06,12,22,23.00
2012,08,06,12,23,23.10
2012,08,06,12,24,23.20
2012,08,06,12,25,23.30
2012,08,06,12,26,23.40
2012,08,06,12,27,23.50
2012,08,06,12,28,23.60
2012,08,06,12,29,23.70
2012,08,06,12,30,23.70
2012,08,06,12,31,23.70
2012,08,06,12,32,23.70
2012,08,06,12,33,23.70
2012,08,06,12,34,23.80
2012,08,06,12,35,23.80
2012,08,06,12,36,23.90
2012,08,06,12,37,23.90
2012,08,06,12,38,24.00
2012,08,06,12,39,24.10
2012,08,06,12,40,24.10
2012,08,06,12,41,24.10
2012,08,06,12,42,24.10
2012,08,06,12,43,24.20
2012,08,06,12,44,24.20
2012,08,06,12,45,24.30
2012,08,06,12,46,24.40
2012,08,06,12,47,24.40
2012,08,06,12,48,24.40
2012,08,06,12,49,24.30
2012,08,06,12,50,24.30
2012,08,06,12,51,24.20
2012,08,06,12,52,24.20
2012,08,06,12,53,24.20
2012,08,06,12,54,24.30
2012,08,06,12,55,24.40
2012,08,06,12,56,24.50
2012,08,06,12,57,24.50
2012,08,06,12,58,24.60
2012,08,06,12,59,24.60
2012,08,06,13,00,24.60
2012,08,06,13,01,24.70
2012,08,06,13,02,24.70
2012,08,06,13,03,24.70
2012,08,06,13,04,24.70
2012,08,06,13,05,24.60
2012,08,06,13,06,24.50
2012,08,06,13,07,24.50
2012,08,06,13,08,24.40
2012,08,06,13,09,24.40
2012,08,06,13,10,24.40
2012,08,06,13,11,24.50
2012,08,06,13,12,24.50
2012,08,06,13,13,24.60
2012,08,06,13,14,24.70
2012,08,06,13,15,24.70
2012,08,06,13,16,24.80
2012,08,06,13,17,24.80
2012,08,06,13,18,24.90
2012,08,06,13,19,25.00
2012,08,06,13,20,25.00
2012,08,06,13,21,25.10
2012,08,06,13,22,25.10
2012,08,06,13,23,25.20
2012,08,06,13,24,25.20
2012,08,06,13,25,25.30
2012,08,06,13,26,25.30
2012,08,06,13,27,25.40
2012,08,06,13,28,25.50
2012,08,06,13,29,25.50
2012,08,06,13,30,25.60
2012,08,06,13,31,25.60
2012,08,06,13,32,25.60
2012,08,06,13,33,25.60
2012,08,06,13,34,25.50
2012,08,06,13,35,25.50
2012,08,06,13,36,25.40
2012,08,06,13,37,25.30
2012,08,06,13,38,25.30
2012,08,06,13,39,25.20
2012,08,06,13,40,25.20
2012,08,06,13,41,25.10
2012,08,06,13,42,25.10
2012,08,06,13,43,25.00
2012,08,06,13,44,24.90
2012,08,06,13,45,24.80
2012,08,06,13,46,24.80
2012,08,06,13,47,24.70
2012,08,06,13,48,24.70
2012,08,06,13,49,24.60
2012,08,06,13,50,24.60
2012,08,06,13,51,24.50
2012,08,06,13,52,24.50
2012,08,06,13,53,24.40
2012,08,06,13,54,24.40
2012,08,06,13,55,24.30
2012,08,06,13,56,24.20
2012,08,06,13,57,24.20
2012,08,06,13,58,24.20
2012,08,06,13,59,24.20
2012,08,06,14,00,24.20
2012,08,06,14,01,24.20
2012,08,06,14,02,24.20
2012,08,06,14,03,24.20
2012,08,06,14,04,24.30
2012,08,06,14,05,24.30
2012,08,06,14,06,24.40
2012,08,06,14,07,24.40
2012,08,06,14,08,24.50
2012,08,06,14,09,24.60
2012,08,06,14,10,24.60
2012,08,06,14,11,24.70
2012,08,06,14,12,24.70
2012,08,06,14,13,24.80
2012,08,06,14,14,24.80
2012,08,06,14,15,24.90
2012,08,06,14,16,24.90
2012,08,06,14,17,24.90
2012,08,06,14,18,24.90
2012,08,06,14,19,25.00
2012,08,06,14,20,25.00
2012,08,06,14,21,24.90
2012,08,06,14,22,24.90
2012,08,06,14,23,24.90
2012,08,06,14,24,24.90
2012,08,06,14,25,24.80
2012,08,06,14,26,24.80
2012,08,06,14,27,24.80
2012,08,06,14,28,24.80
2012,08,06,14,29,24.80
2012,08,06,14,30,24.80
2012,08,06,14,31,24.80
2012,08,06,14,32,24.80
2012,08,06,14,33,24.90
2012,08,06,14,34,24.90
2012,08,06,14,35,24.90
2012,08,06,14,36,25.00
2012,08,06,14,37,25.00
2012,08,06,14,38,25.00
2012,08,06,14,39,24.90
2012,08,06,14,40,24.90
2012,08,06,14,41,24.80
2012,08,06,14,42,24.70
2012,08,06,14,43,24.70
2012,08,06,14,44,24.60
2012,08,06,14,45,24.60
2012,08,06,14,46,24.60
2012,08,06,14,47,24.60
2012,08,06,14,48,24.60
2012,08,06,14,49,24.60
2012,08,06,14,50,24.60
2012,08,06,14,51,24.60
2012,08,06,14,52,24.60
2012,08,06,14,53,24.60
2012,08,06,14,54,24.60
2012,08,06,14,55,24.60
2012,08,06,14,56,24.60
2012,08,06,14,57,24.60
2012,08,06,14,58,24.60
2012,08,06,14,59,24.60
2012,08,06,15,00,24.60
2012,08,06,15,01,24.60
2012,08,06,15,02,24.70
2012,08,06,15,03,24.70
2012,08,06,15,04,24.70
2012,08,06,15,05,24.70
2012,08,06,15,06,24.70
2012,08,06,15,07,24.70
2012,08,06,15,08,24.70
2012,08,06,15,09,24.70
2012,08,06,15,10,24.70
2012,08,06,15,11,24.70
2012,08,06,15,12,24.70
2012,08,06,15,13,24.70
2012,08,06,15,14,24.70
2012,08,06,15,15,24.70
2012,08,06,15,16,24.70
2012,08,06,15,17,24.70
2012,08,06,15,18,24.70
2012,08,06,15,19,24.70
2012,08,06,15,20,24.70
2012,08,06,15,21,24.70
2012,08,06,15,22,24.70
2012,08,06,15,23,24.70
2012,08,06,15,24,24.70
2012,08,06,15,25,24.70
2012,08,06,15,26,24.80
2012,08,06,15,27,24.80
2012,08,06,15,28,24.80
2012,08,06,15,29,24.80
2012,08,06,15,30,24.80
2012,08,06,15,31,24.80
2012,08,06,15,32,24.90
2012,08,06,15,33,24.80
2012,08,06,15,34,24.80
2012,08,06,15,35,24.80
2012,08,06,15,36,24.80
2012,08,06,15,37,24.80
2012,08,06,15,38,24.80
2012,08,06,15,39,24.70
2012,08,06,15,40,24.60
2012,08,06,15,41,24.50
2012,08,06,15,42,24.40
2012,08,06,15,43,24.40
2012,08,06,15,44,24.30
2012,08,06,15,45,24.30
2012,08,06,15,46,24.20
2012,08,06,15,47,24.20
2012,08,06,15,48,24.20
2012,08,06,15,49,24.10
2012,08,06,15,50,24.10
2012,08,06,15,51,24.10
2012,08,06,15,52,24.20
2012,08,06,15,53,24.20
2012,08,06,15,54,24.20
2012,08,06,15,55,24.20
2012,08,06,15,56,24.20
2012,08,06,15,57,24.20
2012,08,06,15,58,24.20
2012,08,06,15,59,24.20
2012,08,06,16,00,24.20
2012,08,06,16,01,24.20
2012,08,06,16,02,24.20
2012,08,06,16,03,24.20
2012,08,06,16,04,24.20
2012,08,06,16,05,24.10
2012,08,06,16,06,24.10
2012,08,06,16,07,24.10
2012,08,06,16,08,24.00
2012,08,06,16,09,24.00
2012,08,06,16,10,24.00
2012,08,06,16,11,23.90
2012,08,06,16,12,23.90
2012,08,06,16,13,23.90
2012,08,06,16,14,23.90
2012,08,06,16,15,23.90
2012,08,06,16,16,23.90
2012,08,06,16,17,23.90
2012,08,06,16,18,23.90
2012,08,06,16,19,23.90
2012,08,06,16,20,23.80
2012,08,06,16,21,23.90
2012,08,06,16,22,23.90
2012,08,06,16,23,23.90
2012,08,06,16,24,23.80
2012,08,06,16,25,23.80
2012,08,06,16,26,23.80
2012,08,06,16,27,23.80
2012,08,06,16,28,23.80
2012,08,06,16,29,23.80
2012,08,06,16,30,23.80
2012,08,06,16,31,23.70
2012,08,06,16,32,23.70
2012,08,06,16,33,23.70
2012,08,06,16,34,23.70
2012,08,06,16,35,23.60
2012,08,06,16,36,23.60
2012,08,06,16,37,23.60
2012,08,06,16,38,23.60
2012,08,06,16,39,23.60
2012,08,06,16,40,23.60
2012,08,06,16,41,23.60
2012,08,06,16,42,23.50
2012,08,06,16,43,23.50
2012,08,06,16,44,23.50
2012,08,06,16,45,23.50
2012,08,06,16,46,23.60
2012,08,06,16,47,23.60
2012,08,06,16,48,23.50
2012,08,06,16,49,23.50
2012,08,06,16,50,23.50
2012,08,06,16,51,23.40
2012,08,06,16,52,23.40
2012,08,06,16,53,23.40
2012,08,06,16,54,23.40
2012,08,06,16,55,23.40
2012,08,06,16,56,23.40
2012,08,06,16,57,23.40
2012,08,06,16,58,23.30
2012,08,06,16,59,23.30
2012,08,06,17,00,23.30
2012,08,06,17,01,23.30
2012,08,06,17,02,23.30
2012,08,06,17,03,23.40
2012,08,06,17,04,23.40
2012,08,06,17,05,23.40
2012,08,06,17,06,23.30
2012,08,06,17,07,23.30
2012,08,06,17,08,23.30
2012,08,06,17,09,23.30
2012,08,06,17,10,23.30
2012,08,06,17,11,23.20
2012,08,06,17,12,23.20
2012,08,06,17,13,23.20
2012,08,06,17,14,23.20
2012,08,06,17,15,23.20
2012,08,06,17,16,23.20
2012,08,06,17,17,23.20
2012,08,06,17,18,23.10
2012,08,06,17,19,23.10